STARLINK-11652, 63315

Orbit data source: Space-Track

STARLINK-11652, 63315 is a payload satellite owned by SpaceX/Seattle (US) in LEO that was launched on Tue, 18 Mar 2025 UTC via an FALCON 9 launch vehicle from the Air Force Eastern Test Range (AFETR). Payload-class satellites include a variety of spacecraft equipped with specific instruments for various scientific and technological missions. These include communications satellites like Starlink; space stations such as the ISS; scientific satellites like the Hubble; Earth observation satellites from companies like Planet Labs, Umbra, and HawkEye 360; GPS; miniature CubeSats for education and research; and military/defense satellites.

Loading next visibility...
Identifier
63315, 2025-057J
Orbit
LEO
Last TLE update
11 hours ago
Origin
Manufacturer
SpaceX/Seattle
Mission
Operational Commercial Communications
Bus & Motor
STARLINK V2M, Unknown motor
Mass
730 kg wet, ~700 kg dry
Launch date (UTC)
2025-03-18 (2 months ago)
Launch vehicle
FALCON 9
Launch site
Air Force Eastern Test Range (AFETR)
Object type
Payload
Rocket body
Debris
Shape & HBR
Box + 2 Pan, 29 m
Radar Cross Section
36.964 m², Large (>1 m²)

Expand to show TLE details & history

TLE from 11 hours ago
0 STARLINK-11652
1 63315U 25057J   25128.78112625  .00000308  00000-0  59071-5 0  9995
2 63315  42.9996 302.3994 0002598 270.1087  89.9483 15.70835355  8065
Epoch: 2025-05-08T18:44Z
Definitive object data (Epoch: 2025-05-08T18:44:49.308Z)
Latitude
0.00001°
Longitude
154.34726°
Altitude
356.278 km
Speed
7.697 km/s
True Right ascension
20h 09m 35s
True Declination
0° 00' 00"
Sunlit
Object was in daylight at TLE epoch
Visualization TLE readout
Latitude
42.91844°
Longitude
-110.99239°
Altitude
361.321 km
Speed
7.698 km/s
Apparent Right ascension
02h 13m 33s
Apparent Declination
2° 53' 30"
Sunlit
Object is in daylight
Visualization observer readout
Local Sidereal Time
13:58:44
Azimuth
354.565° N
Elevation
-47.058°
Doppler factor
1
Orbital elements
Apogee altitude
360.24 km
Perigee altitude
356.74 km
Semi-major axis
6,736.627 km
Eccentricity
0.0002598
Inclination
42.9996°
RAAN
302.3994°
Arg. of periapsis
270.1087°
True anomaly
89.97807°
Mean anomaly
89.9483°
Eccentric anomaly
89.96319°
Mean motion
3.92536 °/min
BSTAR
0.0000059071
Orbital period
91.71 mins
Loading maneuver chart data...
Loading SW <> Apogee altitude chart data...
Loading historical data...
Loading historical data...
Loading historical data...
Loading historical data...
Loading historical data...
Loading historical data...
Loading historical data...

STARLINK-11652 Visibility forecast

Observer location: undefined°, undefined°

Span
Click to sort rows by Start time (UTC) header in descending order
Start Az.
Max El. time (UTC)
Max El. Az.
Max El.
End time (UTC)
End Az.
4 mins2025-05-09 14:47:59.980Z210.096° SW2025-05-09 14:49:59.980Z154.033° SSE27.487°2025-05-09 14:51:59.980Z93.923° ESE
4 mins2025-05-09 18:00:59.980Z303.786° NW2025-05-09 18:01:59.980Z337.555° N33.586°2025-05-09 18:04:59.980Z78.569° E
4 mins2025-05-09 19:36:59.980Z280.276° WNW2025-05-09 19:38:59.980Z151.189° SSE40.198°2025-05-09 19:40:59.980Z119.737° SE
|